Regional Weather Roundup
Issued by NWS

Home | Current Version | Previous Version | Graphics & Text | Print | Product List | Glossary On
Versions: 1 2 3 4 5 6 7 8 9 10 11 12 13 14 15 16 17 18 19 20 21 22 23 24 25 26 27 28 29 30 31 32 33 34 35 36 37 38 39 40 41 42 43 44 45 46 47 48 49 50
000
ASUS45 KABQ 030010
RWRNM
NEW MEXICO REGIONAL WEATHER ROUNDUP
NATIONAL WEATHER SERVICE ALBUQUERQUE NM
600 PM MDT MON MAY 02 2016

NOTE: "FAIR" MEANS FEW OR NO CLOUDS BELOW 12,000 FEET AGL WITH NO
       SIGNIFICANT WEATHER OR OBSTRUCTIONS TO VISION.

      THIS PRODUCT IS RELEASED AS TWO VERSIONS.  ONE VERSION NEAR
      THE TOP OF THE HOUR CONTAINING PRELIMINARY DATA FROM ALBUQUERQUE
      AND OTHER STATIONS.  A FINAL VERSION WITH ADDITIONAL DATA IS
      ISSUED ABOUT 10 MINUTES AFTER THE HOUR.

NMZ501-503-504-510>518-030100-
NORTHWEST PLATEAU/NORTHCENTRAL MOUNTAINS

CITY           SKY/WX    TMP DP  RH WIND       PRES   REMARKS
FARMINGTON     FAIR      60  29  30 VRB7      30.14S
6HR MIN TEMP:  51; 6HR MAX TEMP:  61;

LOS ALAMOS     CLOUDY    50  36  57 NW10      30.21S
SANTA FE       FAIR      59  29  31 SW12      30.15F
6HR MIN TEMP:  48; 6HR MAX TEMP:  61;

TAOS           FAIR      54  28  37 W9        30.18S
ANGEL FIRE     FAIR      50  28  41 W13       30.20S

$$
NMZ402-403-502-505>509-030100-
WESTCENTRAL MOUNTAINS/SOUTHWEST MOUNTAINS

CITY           SKY/WX    TMP DP  RH WIND       PRES   REMARKS
GALLUP         FAIR      58  32  37 NE7       30.15F
6HR MIN TEMP:  51; 6HR MAX TEMP:  59; 6HR PCP: TRACE;

GRANTS         PTSUNNY   56  31  38 CALM      30.18S
SILVER CITY      N/A     64  27  24 SE9       30.14S

$$
NMZ407-409-411-412-030100-
SOUTHERN DESERTS

CITY           SKY/WX    TMP DP  RH WIND       PRES   REMARKS
LORDSBURG      FAIR      72  30  21 SE12G20   30.05F
DEMING         FAIR      70  30  22 SW5       30.07F
6HR MIN TEMP:  60; 6HR MAX TEMP:  71;

LAS CRUCES     FAIR      69  28  21 E3        30.09F
HOLLOMAN AFB   FAIR      69  30  23 SW5       30.07F
ALAMOGORDO     FAIR      68  28  22 W9        30.09F
T OR C         FAIR      68  29  23 MISG      30.07F
6HR MIN TEMP:  56; 6HR MAX TEMP:  69; 6HR PCP: TRACE;


$$
NMZ519>523-030100-
CENTRAL VALLEYS/CENTRAL HIGHLANDS

CITY           SKY/WX    TMP DP  RH WIND       PRES   REMARKS
ALBUQUERQUE    FAIR      62  30  29 CALM      30.14F
6HR MIN TEMP:  51; 6HR MAX TEMP:  63;

DOUBLE EAGLE   MOSUNNY   61  30  31 CALM      30.16F
MORIARTY ARPT  FAIR      61  25  25 SW8G17    30.16F
6HR MIN TEMP:  47; 6HR MAX TEMP:  62;

CLINES CORNERS PTSUNNY   55  28  35 NW9       30.16F
6HR MIN TEMP:  45; 6HR MAX TEMP:  57;

BELEN          FAIR      63  30  28 NW8       30.13F
6HR MIN TEMP:  50; 6HR MAX TEMP:  64;

SOCORRO        FAIR      65  27  23 E6        30.11S
6HR MIN TEMP:  54; 6HR MAX TEMP:  67;


$$
NMZ524>526-539-540-030100-
SOUTHCENTRAL MOUNTAINS

CITY           SKY/WX    TMP DP  RH WIND       PRES   REMARKS
RUIDOSO          N/A     55  34  44 SE12      30.20S

$$
NMZ527>531-030100-
NORTHEAST HIGHLANDS/NORTHEAST PLAINS

CITY           SKY/WX    TMP DP  RH WIND       PRES   REMARKS
LAS VEGAS      FAIR      56  30  37 S12       30.14F
6HR MIN TEMP:  45; 6HR MAX TEMP:  58;

RATON          PTSUNNY   54  32  43 W9        30.14S
6HR MIN TEMP:  46; 6HR MAX TEMP:  58;

CLAYTON        PTSUNNY   58  34  40 S6        30.12S
6HR MIN TEMP:  51; 6HR MAX TEMP:  62;


$$
NMZ532>537-030100-
EASTCENTRAL PLAINS

CITY           SKY/WX    TMP DP  RH WIND       PRES   REMARKS
TUCUMCARI      FAIR      64  33  31 S3        30.10F
6HR MIN TEMP:  54; 6HR MAX TEMP:  65;

CANNON AFB     FAIR      64  33  31 SW6       30.12F
6HR MIN TEMP:  54; 6HR MAX TEMP:  65;

CLOVIS AIRPORT FAIR      63  36  36 S5        30.14S

$$
NMZ028-029-538-030100-
SOUTHEAST PLAINS

CITY           SKY/WX    TMP DP  RH WIND       PRES   REMARKS
ROSWELL        FAIR      65  33  30 CALM      30.11S
6HR MIN TEMP:  55; 6HR MAX TEMP:  68;

ARTESIA        FAIR      66  34  30 CALM      30.11F
CARLSBAD       FAIR      67  34  29 CALM      30.09F
6HR MIN TEMP:  56; 6HR MAX TEMP:  68;

HOBBS          SUNNY     66  32  28 N3        30.12F


$$




USA.gov is the U.S. government's official web portal to all federal, state and local government web resources and services.